Погода в Арке

Россия / Хабаровский край     60°04′55″N   142°20′08″E
темп.,
°C
ветер,
м/с
пор.,
м/с
влажн.,
%
обл.,
%
осадки,
мм/ч
давл.,
гПа
погр.,
м
6 марта, сб
сб601:00−36зсз43700 0.0 101421
04:00−37зсз43680 0.0 101422
07:00−38зсз43685 0.0 101323
10:00−33зсз447246 0.0 1013202
13:00−27зсз447285 0.0 1011313
16:00−25зсз347393 0.0 1011331
19:00−30зсз337621 0.0 101220
22:00−33зсз337611 0.0 101420
7 марта, вс
вс701:00−34зсз33760 0.0 101420
04:00−35зсз33737 0.0 101420
07:00−36зсз33710 0.0 101421
10:00−31зсз33710 0.0 1013172
13:00−26зсз34700 0.0 1011342
16:00−24зсз33710 0.0 1009377
19:00−30зсз32780 0.0 101019
22:00−32зсз33770 0.0 101119
8 марта, пн
пн801:00−32зсз33780 0.0 101119
04:00−33зсз33750 0.0 101019
07:00−34зсз33710 0.0 101019
10:00−28зсз33700 0.0 1009173
13:00−23зсз33690 0.0 1006341
16:00−21з22700 0.0 1005353
19:00−28зсз22790 0.0 100719
22:00−29зсз22760 0.0 100819
9 марта, вт
вт901:00−29зсз22730 0.0 100819
04:00−29сз22710 0.0 100819
07:00−29сз22670 0.0 100919
10:00−23зсз22630 0.0 1009165
13:00−20з22510 0.0 1008388
16:00−17з12630 0.0 1008408
19:00−24з11780 0.0 101120
22:00−25сз22760 0.0 101320
10 марта, ср
ср1001:00−26сз22740 0.0 101320
04:00−27сз22750 0.0 101419
07:00−27сз22760 0.0 101519
10:00−22зсз22700 0.0 1016163
13:00−19юз11550 0.0 1015424
16:00−17ююв22730 0.0 1015470
19:00−24юв1210017 0.0 101720
22:00−26всв1110055 0.0 101920